Time,TemperatureF,DewpointF,PressureIn,WindDirection,WindDirectionDegrees,WindSpeedMPH,WindSpeedGustMPH,Humidity,HourlyPrecipIn,Conditions,Clouds,dailyrainin,SoftwareType,DateUTC
2013-05-26 00:01:00,47.4,39.9,30.00,NE,53,1.0,14.0,75,0.00,,---,0.37,VWS V14.01,2013-05-26 04:01:00,
2013-05-26 00:06:00,47.3,39.5,30.00,NNW,329,1.0,8.0,74,0.00,,---,0.00,VWS V14.01,2013-05-26 04:06:00,
2013-05-26 00:11:00,47.3,39.5,30.00,NW,323,8.0,8.0,74,0.00,,---,0.00,VWS V14.01,2013-05-26 04:11:00,
2013-05-26 00:16:00,47.2,39.3,29.99,SW,221,2.0,8.0,74,0.00,,---,0.00,VWS V14.01,2013-05-26 04:16:00,
2013-05-26 00:21:00,47.1,39.6,29.99,West,276,1.0,8.0,75,0.00,,---,0.00,VWS V14.01,2013-05-26 04:21:00,
2013-05-26 00:26:00,47.0,39.2,30.00,NE,48,0.0,8.0,74,0.00,,---,0.00,VWS V14.01,2013-05-26 04:26:00,
2013-05-26 00:31:00,46.9,39.7,30.00,North,352,1.0,2.0,76,0.00,,---,0.00,VWS V14.01,2013-05-26 04:31:00,
2013-05-26 00:36:00,46.7,39.2,30.00,NNE,32,2.0,6.0,75,0.00,,---,0.00,VWS V14.01,2013-05-26 04:36:00,
2013-05-26 00:41:00,46.7,39.2,30.00,NE,52,1.0,7.0,75,0.00,,---,0.00,VWS V14.01,2013-05-26 04:41:00,
2013-05-26 00:46:00,46.5,39.0,30.00,WNW,300,0.0,7.0,75,0.00,,---,0.00,VWS V14.01,2013-05-26 04:46:00,
2013-05-26 00:51:00,46.5,39.4,30.00,North,359,0.0,7.0,76,0.00,,---,0.00,VWS V14.01,2013-05-26 04:51:00,
2013-05-26 00:56:00,46.4,39.3,30.00,NE,41,2.0,9.0,76,0.00,,---,0.00,VWS V14.01,2013-05-26 04:56:00,
2013-05-26 01:01:00,46.4,38.9,30.00,WNW,284,3.0,3.0,75,0.00,,---,0.00,VWS V14.01,2013-05-26 05:01:00,
2013-05-26 01:06:00,46.4,38.9,30.00,North,3,2.0,12.0,75,0.00,,---,0.00,VWS V14.01,2013-05-26 05:06:00,
2013-05-26 01:11:00,46.4,38.9,30.00,NE,37,3.0,12.0,75,0.00,,---,0.00,VWS V14.01,2013-05-26 05:11:00,
2013-05-26 01:16:00,46.4,38.9,30.00,SSW,204,0.0,12.0,75,0.00,,---,0.00,VWS V14.01,2013-05-26 05:16:00,
2013-05-26 01:21:00,46.4,38.9,30.00,West,265,1.0,12.0,75,0.00,,---,0.00,VWS V14.01,2013-05-26 05:21:00,
2013-05-26 01:26:00,46.4,39.3,30.00,West,265,0.0,12.0,76,0.00,,---,0.00,VWS V14.01,2013-05-26 05:26:00,
2013-05-26 01:31:00,46.4,39.3,30.00,WNW,300,2.0,2.0,76,0.00,,---,0.00,VWS V14.01,2013-05-26 05:31:00,
2013-05-26 01:36:00,46.4,39.6,29.99,ESE,121,3.0,5.0,77,0.00,,---,0.00,VWS V14.01,2013-05-26 05:36:00,
2013-05-26 01:41:00,46.3,39.2,29.99,North,354,1.0,6.0,76,0.00,,---,0.00,VWS V14.01,2013-05-26 05:41:00,
2013-05-26 01:46:00,46.2,39.7,29.99,NNW,328,1.0,6.0,78,0.00,,---,0.00,VWS V14.01,2013-05-26 05:46:00,
2013-05-26 01:51:00,46.1,39.3,29.99,NE,44,1.0,6.0,77,0.00,,---,0.00,VWS V14.01,2013-05-26 05:51:00,
2013-05-26 01:56:00,46.0,39.2,29.99,ENE,66,1.0,6.0,77,0.00,,---,0.00,VWS V14.01,2013-05-26 05:56:00,
2013-05-26 02:01:00,45.8,39.0,29.99,NW,317,4.0,4.0,77,0.00,,---,0.00,VWS V14.01,2013-05-26 06:01:00,
2013-05-26 02:06:00,45.8,39.0,29.99,WSW,248,5.0,5.0,77,0.00,,---,0.00,VWS V14.01,2013-05-26 06:06:00,
2013-05-26 02:11:00,45.8,39.0,29.99,WNW,291,1.0,5.0,77,0.00,,---,0.00,VWS V14.01,2013-05-26 06:11:00,
2013-05-26 02:16:00,45.7,39.2,29.99,NE,46,0.0,5.0,78,0.00,,---,0.00,VWS V14.01,2013-05-26 06:16:00,
2013-05-26 02:21:00,45.6,39.5,29.99,NNE,32,0.0,5.0,79,0.00,,---,0.00,VWS V14.01,2013-05-26 06:21:00,
2013-05-26 02:26:00,45.6,38.8,29.99,NNE,14,2.0,5.0,77,0.00,,---,0.00,VWS V14.01,2013-05-26 06:26:00,
2013-05-26 02:31:00,45.6,38.8,29.99,WNW,300,1.0,2.0,77,0.00,,---,0.00,VWS V14.01,2013-05-26 06:31:00,
2013-05-26 02:36:00,45.6,39.2,29.98,NNW,334,3.0,4.0,78,0.00,,---,0.00,VWS V14.01,2013-05-26 06:36:00,
2013-05-26 02:41:00,45.6,38.8,29.99,SW,228,1.0,7.0,77,0.00,,---,0.00,VWS V14.01,2013-05-26 06:41:00,
2013-05-26 02:46:00,45.7,38.9,29.99,WNW,295,2.0,7.0,77,0.00,,---,0.00,VWS V14.01,2013-05-26 06:46:00,
2013-05-26 02:51:00,45.7,38.9,29.99,WNW,297,3.0,7.0,77,0.00,,---,0.00,VWS V14.01,2013-05-26 06:51:00,
2013-05-26 02:56:00,45.7,38.9,29.98,NW,325,1.0,7.0,77,0.00,,---,0.00,VWS V14.01,2013-05-26 06:56:00,
2013-05-26 03:01:00,45.7,38.9,29.98,West,274,3.0,4.0,77,0.00,,---,0.00,VWS V14.01,2013-05-26 07:01:00,
2013-05-26 03:06:00,45.9,39.1,29.98,East,91,1.0,10.0,77,0.00,,---,0.00,VWS V14.01,2013-05-26 07:06:00,
2013-05-26 03:11:00,45.8,39.3,29.98,NNW,328,1.0,10.0,78,0.00,,---,0.00,VWS V14.01,2013-05-26 07:11:00,
2013-05-26 03:16:00,45.6,39.0,29.98,NNE,18,1.0,3.0,79,0.00,,,0.00,weatherlink.com 1.10,2013-05-26 07:16:00,
2013-05-26 03:21:00,45.4,39.0,29.97,NNW,347,2.0,10.0,78,0.00,,---,0.00,VWS V14.01,2013-05-26 07:21:00,
2013-05-26 03:26:00,45.4,39.0,29.97,WNW,283,1.0,10.0,78,0.00,,---,0.00,VWS V14.01,2013-05-26 07:26:00,
2013-05-26 03:31:00,45.4,39.3,29.97,SW,226,1.0,1.0,79,0.00,,---,0.00,VWS V14.01,2013-05-26 07:31:00,
2013-05-26 03:36:00,45.4,39.3,29.97,West,271,2.0,4.0,79,0.00,,---,0.00,VWS V14.01,2013-05-26 07:36:00,
2013-05-26 03:41:00,45.5,39.4,29.97,NW,316,0.0,4.0,79,0.00,,---,0.00,VWS V14.01,2013-05-26 07:41:00,
2013-05-26 03:46:00,45.5,39.4,29.97,SSE,163,0.0,4.0,79,0.00,,---,0.00,VWS V14.01,2013-05-26 07:46:00,
2013-05-26 03:51:00,45.4,39.6,29.97,NNW,345,0.0,4.0,80,0.00,,---,0.00,VWS V14.01,2013-05-26 07:51:00,
2013-05-26 03:56:00,45.2,39.4,29.98,SSE,150,0.0,4.0,80,0.00,,---,0.00,VWS V14.01,2013-05-26 07:56:00,
2013-05-26 04:01:00,45.2,39.1,29.98,West,277,1.0,1.0,79,0.00,,---,0.00,VWS V14.01,2013-05-26 08:01:00,
2013-05-26 04:06:00,45.3,39.5,29.98,West,271,2.0,3.0,80,0.00,,---,0.00,VWS V14.01,2013-05-26 08:06:00,
2013-05-26 04:11:00,45.2,39.1,29.98,West,264,2.0,5.0,79,0.00,,---,0.00,VWS V14.01,2013-05-26 08:11:00,
2013-05-26 04:16:00,45.3,39.5,29.99,SSW,207,0.0,5.0,80,0.00,,---,0.00,VWS V14.01,2013-05-26 08:16:00,
2013-05-26 04:21:00,45.1,39.3,29.99,West,275,2.0,5.0,80,0.00,,---,0.00,VWS V14.01,2013-05-26 08:21:00,
2013-05-26 04:26:00,45.1,39.3,29.99,West,276,0.0,6.0,80,0.00,,---,0.00,VWS V14.01,2013-05-26 08:26:00,
2013-05-26 04:31:00,45.1,39.3,29.99,SE,141,0.0,0.0,80,0.00,,---,0.00,VWS V14.01,2013-05-26 08:31:00,
2013-05-26 04:36:00,44.8,39.3,30.00,SE,142,0.0,1.0,81,0.00,,---,0.00,VWS V14.01,2013-05-26 08:36:00,
2013-05-26 04:41:00,44.5,39.4,30.00,SSW,195,0.0,1.0,82,0.00,,---,0.00,VWS V14.01,2013-05-26 08:41:00,
2013-05-26 04:46:00,44.2,39.7,29.99,SW,226,1.0,2.0,84,0.00,,---,0.00,VWS V14.01,2013-05-26 08:46:00,
2013-05-26 04:51:00,43.9,39.4,30.00,SSE,153,1.0,2.0,84,0.00,,---,0.00,VWS V14.01,2013-05-26 08:51:00,
2013-05-26 04:56:00,43.8,39.6,30.00,SSE,153,0.0,2.0,85,0.00,,---,0.00,VWS V14.01,2013-05-26 08:56:00,
2013-05-26 05:01:00,43.6,39.7,30.00,SSE,148,0.0,0.0,86,0.00,,---,0.00,VWS V14.01,2013-05-26 09:01:00,
2013-05-26 05:06:00,43.5,39.9,30.00,SSE,148,0.0,0.0,87,0.00,,---,0.00,VWS V14.01,2013-05-26 09:06:00,
2013-05-26 05:11:00,43.3,39.7,30.00,SSW,208,0.0,1.0,87,0.00,,---,0.00,VWS V14.01,2013-05-26 09:11:00,
2013-05-26 05:16:00,43.6,39.4,30.00,WSW,255,0.0,3.0,85,0.00,,---,0.00,VWS V14.01,2013-05-26 09:16:00,
2013-05-26 05:21:00,43.9,39.7,30.00,WSW,253,0.0,3.0,85,0.00,,---,0.00,VWS V14.01,2013-05-26 09:21:00,
2013-05-26 05:26:00,44.0,39.5,30.01,SE,130,0.0,3.0,84,0.00,,---,0.00,VWS V14.01,2013-05-26 09:26:00,
2013-05-26 05:31:00,44.0,40.1,30.01,West,259,1.0,1.0,86,0.00,,---,0.00,VWS V14.01,2013-05-26 09:31:00,
2013-05-26 05:36:00,44.0,39.8,30.01,NW,321,2.0,3.0,85,0.00,,---,0.00,VWS V14.01,2013-05-26 09:36:00,
2013-05-26 05:41:00,44.5,40.0,30.01,South,188,3.0,3.0,84,0.00,,---,0.00,VWS V14.01,2013-05-26 09:41:00,
2013-05-26 05:46:00,44.9,39.8,30.00,WSW,252,1.0,3.0,82,0.00,,---,0.00,VWS V14.01,2013-05-26 09:46:00,
2013-05-26 05:51:00,45.3,39.8,30.01,SE,124,0.0,3.0,81,0.00,,---,0.00,VWS V14.01,2013-05-26 09:51:00,
2013-05-26 05:56:00,45.4,39.9,30.01,South,173,1.0,3.0,81,0.00,,---,0.00,VWS V14.01,2013-05-26 09:56:00,
2013-05-26 06:01:00,45.7,39.6,30.01,West,276,0.0,3.0,79,0.00,,---,0.00,VWS V14.01,2013-05-26 10:01:00,
2013-05-26 06:06:00,46.0,39.5,30.01,SSW,205,0.0,3.0,78,0.00,,---,0.00,VWS V14.01,2013-05-26 10:06:00,
2013-05-26 06:11:00,46.3,39.8,30.02,SE,127,0.0,3.0,78,0.00,,---,0.00,VWS V14.01,2013-05-26 10:11:00,
2013-05-26 06:16:00,46.5,39.7,30.01,SSE,155,0.0,3.0,77,0.00,,---,0.00,VWS V14.01,2013-05-26 10:16:00,
2013-05-26 06:21:00,46.8,40.0,30.02,South,187,0.0,3.0,77,0.00,,---,0.00,VWS V14.01,2013-05-26 10:21:00,
2013-05-26 06:26:00,47.0,40.2,30.01,SSE,148,0.0,3.0,77,0.00,,---,0.00,VWS V14.01,2013-05-26 10:26:00,
2013-05-26 06:31:00,47.0,40.2,30.02,West,269,1.0,3.0,77,0.00,,---,0.00,VWS V14.01,2013-05-26 10:31:00,
2013-05-26 06:36:00,47.2,40.4,30.02,South,172,0.0,2.0,77,0.00,,---,0.00,VWS V14.01,2013-05-26 10:36:00,
2013-05-26 06:41:00,47.4,40.2,30.02,West,269,0.0,2.0,76,0.00,,---,0.00,VWS V14.01,2013-05-26 10:41:00,
2013-05-26 06:46:00,47.7,40.5,30.02,WNW,282,0.0,3.0,76,0.00,,---,0.00,VWS V14.01,2013-05-26 10:46:00,
2013-05-26 06:51:00,47.8,40.6,30.02,SW,235,0.0,4.0,76,0.00,,---,0.00,VWS V14.01,2013-05-26 10:51:00,
2013-05-26 06:56:00,47.9,40.7,30.02,WNW,294,0.0,4.0,76,0.00,,---,0.00,VWS V14.01,2013-05-26 10:56:00,
2013-05-26 07:01:00,47.9,40.7,30.02,SW,228,0.0,0.0,76,0.00,,---,0.00,VWS V14.01,2013-05-26 11:01:00,
2013-05-26 07:06:00,47.9,40.4,30.02,SSE,153,1.0,4.0,75,0.00,,---,0.00,VWS V14.01,2013-05-26 11:06:00,
2013-05-26 07:11:00,48.1,40.6,30.02,WNW,290,2.0,5.0,75,0.00,,---,0.00,VWS V14.01,2013-05-26 11:11:00,
2013-05-26 07:16:00,48.1,40.6,30.02,WSW,256,4.0,5.0,75,0.00,,---,0.00,VWS V14.01,2013-05-26 11:16:00,
2013-05-26 07:21:00,48.2,40.3,30.02,ESE,122,2.0,10.0,74,0.00,,---,0.00,VWS V14.01,2013-05-26 11:21:00,
2013-05-26 07:26:00,48.3,40.4,30.02,West,260,0.0,10.0,74,0.00,,---,0.00,VWS V14.01,2013-05-26 11:26:00,
2013-05-26 07:31:00,48.2,40.3,30.03,South,184,2.0,10.0,74,0.00,,---,0.00,VWS V14.01,2013-05-26 11:31:00,
2013-05-26 07:36:00,48.3,40.8,30.03,NNW,342,2.0,7.0,75,0.00,,---,0.00,VWS V14.01,2013-05-26 11:36:00,
2013-05-26 07:41:00,48.4,40.5,30.03,WNW,290,0.0,7.0,74,0.00,,---,0.00,VWS V14.01,2013-05-26 11:41:00,
2013-05-26 07:46:00,48.5,41.0,30.03,SE,136,0.0,7.0,75,0.00,,---,0.00,VWS V14.01,2013-05-26 11:46:00,
2013-05-26 07:51:00,48.7,40.8,30.03,West,271,3.0,7.0,74,0.00,,---,0.00,VWS V14.01,2013-05-26 11:51:00,
2013-05-26 07:56:00,49.0,40.0,30.02,NE,36,2.0,8.0,71,0.00,,---,0.00,VWS V14.01,2013-05-26 11:56:00,
2013-05-26 08:01:00,49.4,41.1,30.03,West,280,3.0,8.0,73,0.00,,---,0.00,VWS V14.01,2013-05-26 12:01:00,
2013-05-26 08:06:00,49.6,41.0,30.03,WNW,282,1.0,6.0,72,0.00,,---,0.00,VWS V14.01,2013-05-26 12:06:00,
2013-05-26 08:11:00,49.7,41.0,30.03,West,277,2.0,6.0,72,0.00,,---,0.00,VWS V14.01,2013-05-26 12:11:00,
2013-05-26 08:15:00,50.1,40.7,30.03,NNW,338,1.0,10.0,70,0.00,,---,0.00,VWS V14.01,2013-05-26 12:15:00,
2013-05-26 08:20:00,50.3,40.9,30.03,SSE,168,1.0,10.0,70,0.00,,---,0.00,VWS V14.01,2013-05-26 12:20:00,
2013-05-26 08:25:00,50.6,40.8,30.03,West,273,3.0,10.0,69,0.00,,---,0.00,VWS V14.01,2013-05-26 12:25:00,
2013-05-26 08:30:00,50.9,40.0,30.03,West,278,9.0,13.0,66,0.00,,---,0.00,VWS V14.01,2013-05-26 12:30:00,
2013-05-26 08:35:00,51.1,40.5,30.03,North,349,3.0,10.0,67,0.00,,---,0.00,VWS V14.01,2013-05-26 12:35:00,
2013-05-26 08:40:00,51.4,40.8,30.03,NW,319,5.0,10.0,67,0.00,,---,0.00,VWS V14.01,2013-05-26 12:40:00,
2013-05-26 08:45:00,51.8,40.8,30.03,SE,142,3.0,10.0,66,0.00,,---,0.00,VWS V14.01,2013-05-26 12:45:00,
2013-05-26 08:50:00,52.3,40.5,30.03,SW,226,2.0,11.0,64,0.00,,---,0.00,VWS V14.01,2013-05-26 12:50:00,
2013-05-26 08:55:00,52.5,39.5,30.03,SW,215,7.0,11.0,61,0.00,,---,0.00,VWS V14.01,2013-05-26 12:55:00,
2013-05-26 09:00:00,52.6,40.0,30.03,NW,304,3.0,11.0,62,0.00,,---,0.00,VWS V14.01,2013-05-26 13:00:00,
2013-05-26 09:05:00,52.9,39.0,30.03,NW,319,6.0,14.0,59,0.00,,---,0.00,VWS V14.01,2013-05-26 13:05:00,
2013-05-26 09:10:00,53.2,39.7,30.03,NNW,330,4.0,14.0,60,0.00,,---,0.00,VWS V14.01,2013-05-26 13:10:00,
2013-05-26 09:15:00,53.4,39.9,30.03,West,266,3.0,14.0,60,0.00,,---,0.00,VWS V14.01,2013-05-26 13:15:00,
2013-05-26 09:20:00,53.6,39.2,30.03,West,265,4.0,14.0,58,0.00,,---,0.00,VWS V14.01,2013-05-26 13:20:00,
2013-05-26 09:25:00,53.6,39.6,30.03,SE,125,6.0,14.0,59,0.00,,---,0.00,VWS V14.01,2013-05-26 13:25:00,
2013-05-26 09:30:00,53.4,39.0,30.03,West,269,10.0,15.0,58,0.00,,---,0.00,VWS V14.01,2013-05-26 13:30:00,
2013-05-26 09:35:00,53.2,38.8,30.04,WNW,291,2.0,11.0,58,0.00,,---,0.00,VWS V14.01,2013-05-26 13:35:00,
2013-05-26 09:40:00,53.5,39.5,30.03,North,351,2.0,11.0,59,0.00,,---,0.00,VWS V14.01,2013-05-26 13:40:00,
2013-05-26 09:45:00,54.1,39.7,30.03,ENE,75,1.0,11.0,58,0.00,,---,0.00,VWS V14.01,2013-05-26 13:45:00,
2013-05-26 09:50:00,54.1,39.7,30.03,West,262,8.0,11.0,58,0.00,,---,0.00,VWS V14.01,2013-05-26 13:50:00,
2013-05-26 09:55:00,54.2,39.3,30.04,SW,235,6.0,11.0,57,0.00,,---,0.00,VWS V14.01,2013-05-26 13:55:00,
2013-05-26 10:00:00,54.1,39.7,30.04,WSW,256,0.0,11.0,58,0.00,,---,0.00,VWS V14.01,2013-05-26 14:00:00,
2013-05-26 10:05:00,54.2,39.8,30.04,North,10,4.0,6.0,58,0.00,,---,0.00,VWS V14.01,2013-05-26 14:05:00,
2013-05-26 10:10:00,54.3,39.4,30.04,WNW,290,5.0,11.0,57,0.00,,---,0.00,VWS V14.01,2013-05-26 14:10:00,
2013-05-26 10:15:00,54.4,39.0,30.04,WNW,296,7.0,11.0,56,0.00,,---,0.00,VWS V14.01,2013-05-26 14:15:00,
2013-05-26 10:20:00,54.8,39.9,30.04,WNW,303,8.0,11.0,57,0.00,,---,0.00,VWS V14.01,2013-05-26 14:20:00,
2013-05-26 10:25:00,55.1,40.6,30.03,West,259,6.0,11.0,58,0.00,,---,0.00,VWS V14.01,2013-05-26 14:25:00,
2013-05-26 10:30:00,55.1,39.2,30.04,NW,304,0.0,11.0,55,0.00,,---,0.00,VWS V14.01,2013-05-26 14:30:00,
2013-05-26 10:35:00,55.4,39.0,30.04,NNW,343,5.0,11.0,54,0.00,,---,0.00,VWS V14.01,2013-05-26 14:35:00,
2013-05-26 10:40:00,55.6,39.2,30.04,WNW,300,7.0,11.0,54,0.00,,---,0.00,VWS V14.01,2013-05-26 14:40:00,
2013-05-26 10:45:00,55.9,39.5,30.03,NNW,345,3.0,11.0,54,0.00,,---,0.00,VWS V14.01,2013-05-26 14:45:00,
2013-05-26 10:50:00,56.1,39.7,30.04,WNW,298,6.0,11.0,54,0.00,,---,0.00,VWS V14.01,2013-05-26 14:50:00,
2013-05-26 10:55:00,56.5,40.5,30.04,NE,43,3.0,11.0,55,0.00,,---,0.00,VWS V14.01,2013-05-26 14:55:00,
2013-05-26 11:00:00,56.8,40.3,30.04,NW,326,4.0,11.0,54,0.00,,---,0.00,VWS V14.01,2013-05-26 15:00:00,
2013-05-26 11:05:00,56.9,40.0,30.04,WNW,302,6.0,9.0,53,0.00,,---,0.00,VWS V14.01,2013-05-26 15:05:00,
2013-05-26 11:10:00,56.3,38.9,30.04,West,280,9.0,15.0,52,0.00,,---,0.00,VWS V14.01,2013-05-26 15:10:00,
2013-05-26 11:15:00,56.0,39.6,30.04,West,269,3.0,15.0,54,0.00,,---,0.00,VWS V14.01,2013-05-26 15:15:00,
2013-05-26 11:20:00,56.2,39.3,30.04,North,352,5.0,15.0,53,0.00,,---,0.00,VWS V14.01,2013-05-26 15:20:00,
2013-05-26 11:25:00,56.5,38.6,30.04,WSW,253,9.0,15.0,51,0.00,,---,0.00,VWS V14.01,2013-05-26 15:25:00,
2013-05-26 11:30:00,56.6,38.2,30.04,NNE,18,4.0,15.0,50,0.00,,---,0.00,VWS V14.01,2013-05-26 15:30:00,
2013-05-26 11:35:00,56.7,39.3,30.04,NNW,330,4.0,8.0,52,0.00,,---,0.00,VWS V14.01,2013-05-26 15:35:00,
2013-05-26 11:40:00,56.8,38.9,30.05,NNW,328,6.0,8.0,51,0.00,,---,0.00,VWS V14.01,2013-05-26 15:40:00,
2013-05-26 11:45:00,57.4,39.4,30.05,NE,37,3.0,8.0,51,0.00,,---,0.00,VWS V14.01,2013-05-26 15:45:00,
2013-05-26 11:50:00,58.1,37.5,30.05,West,264,8.0,11.0,46,0.00,,---,0.00,VWS V14.01,2013-05-26 15:50:00,
2013-05-26 11:55:00,58.5,38.4,30.05,West,275,4.0,16.0,47,0.00,,---,0.00,VWS V14.01,2013-05-26 15:55:00,
2013-05-26 12:00:00,58.6,39.0,30.04,WNW,291,2.0,16.0,48,0.00,,---,0.00,VWS V14.01,2013-05-26 16:00:00,
2013-05-26 12:05:00,58.8,39.7,30.05,South,187,2.0,5.0,49,0.00,,---,0.00,VWS V14.01,2013-05-26 16:05:00,
2013-05-26 12:10:00,59.2,39.5,30.05,West,281,9.0,9.0,48,0.00,,---,0.00,VWS V14.01,2013-05-26 16:10:00,
2013-05-26 12:15:00,59.4,38.1,30.05,WNW,302,8.0,12.0,45,0.00,,---,0.00,VWS V14.01,2013-05-26 16:15:00,
2013-05-26 12:20:00,59.2,37.3,30.05,WSW,257,9.0,13.0,44,0.00,,---,0.00,VWS V14.01,2013-05-26 16:20:00,
2013-05-26 12:25:00,58.9,38.7,30.04,NNE,30,2.0,13.0,47,0.00,,---,0.00,VWS V14.01,2013-05-26 16:25:00,
2013-05-26 12:30:00,59.0,37.7,30.05,ENE,58,2.0,13.0,45,0.00,,---,0.00,VWS V14.01,2013-05-26 16:30:00,
2013-05-26 12:35:00,59.3,37.4,30.05,West,264,4.0,12.0,44,0.00,,---,0.00,VWS V14.01,2013-05-26 16:35:00,
2013-05-26 12:40:00,59.9,38.0,30.05,North,9,8.0,12.0,44,0.00,,---,0.00,VWS V14.01,2013-05-26 16:40:00,
2013-05-26 12:45:00,60.6,36.2,30.04,NNW,328,3.0,12.0,40,0.00,,---,0.00,VWS V14.01,2013-05-26 16:45:00,
2013-05-26 12:50:00,61.0,35.2,30.05,South,191,5.0,12.0,38,0.00,,---,0.00,VWS V14.01,2013-05-26 16:50:00,
2013-05-26 12:55:00,61.2,36.1,30.05,NE,43,5.0,12.0,39,0.00,,---,0.00,VWS V14.01,2013-05-26 16:55:00,
2013-05-26 13:00:00,61.0,35.9,30.04,WSW,258,4.0,13.0,39,0.00,,---,0.00,VWS V14.01,2013-05-26 17:00:00,
2013-05-26 13:05:00,61.1,36.0,30.04,WSW,249,8.0,11.0,39,0.00,,---,0.00,VWS V14.01,2013-05-26 17:05:00,
2013-05-26 13:10:00,61.4,35.6,30.04,NE,38,5.0,13.0,38,0.00,,---,0.00,VWS V14.01,2013-05-26 17:10:00,
2013-05-26 13:15:00,61.5,35.0,30.04,NW,318,4.0,13.0,37,0.00,,---,0.00,VWS V14.01,2013-05-26 17:15:00,
2013-05-26 13:20:00,61.3,34.8,30.04,North,354,6.0,13.0,37,0.00,,---,0.00,VWS V14.01,2013-05-26 17:20:00,
2013-05-26 13:25:00,61.4,35.6,30.04,NW,316,2.0,13.0,38,0.00,,---,0.00,VWS V14.01,2013-05-26 17:25:00,
2013-05-26 13:30:00,62.0,36.1,30.03,North,10,4.0,14.0,38,0.00,,---,0.00,VWS V14.01,2013-05-26 17:30:00,
2013-05-26 13:35:00,61.9,36.0,30.04,WSW,248,6.0,14.0,38,0.00,,---,0.00,VWS V14.01,2013-05-26 17:35:00,
2013-05-26 13:40:00,61.6,35.1,30.04,West,270,9.0,14.0,37,0.00,,---,0.00,VWS V14.01,2013-05-26 17:40:00,
2013-05-26 13:45:00,61.6,36.4,30.04,North,354,3.0,14.0,39,0.00,,---,0.00,VWS V14.01,2013-05-26 17:45:00,
2013-05-26 13:50:00,61.9,37.3,30.04,WSW,257,2.0,14.0,40,0.00,,---,0.00,VWS V14.01,2013-05-26 17:50:00,
2013-05-26 13:55:00,62.1,36.9,30.04,NNE,18,1.0,14.0,39,0.00,,---,0.00,VWS V14.01,2013-05-26 17:55:00,
2013-05-26 14:00:00,62.2,35.6,30.03,NNW,342,4.0,14.0,37,0.00,,---,0.00,VWS V14.01,2013-05-26 18:00:00,
2013-05-26 14:05:00,62.7,36.1,30.04,West,266,5.0,10.0,37,0.00,,---,0.00,VWS V14.01,2013-05-26 18:05:00,
2013-05-26 14:10:00,62.6,36.0,30.04,SW,226,2.0,12.0,37,0.00,,---,0.00,VWS V14.01,2013-05-26 18:10:00,
2013-05-26 14:15:00,62.3,35.0,30.04,WNW,302,5.0,12.0,36,0.00,,---,0.00,VWS V14.01,2013-05-26 18:15:00,
2013-05-26 14:20:00,62.1,35.5,30.04,WNW,287,3.0,12.0,37,0.00,,---,0.00,VWS V14.01,2013-05-26 18:20:00,
2013-05-26 14:25:00,61.9,36.0,30.04,NNW,342,2.0,12.0,38,0.00,,---,0.00,VWS V14.01,2013-05-26 18:25:00,
2013-05-26 14:30:00,62.0,36.1,30.04,NNE,23,3.0,12.0,38,0.00,,---,0.00,VWS V14.01,2013-05-26 18:30:00,
2013-05-26 14:35:00,62.2,36.3,30.04,WNW,287,3.0,9.0,38,0.00,,---,0.00,VWS V14.01,2013-05-26 18:35:00,
2013-05-26 14:40:00,62.5,35.9,30.03,NE,43,4.0,9.0,37,0.00,,---,0.00,VWS V14.01,2013-05-26 18:40:00,
2013-05-26 14:45:00,62.6,35.3,30.04,NNE,15,4.0,9.0,36,0.00,,---,0.00,VWS V14.01,2013-05-26 18:45:00,
2013-05-26 14:50:00,62.6,34.6,30.04,NNW,332,8.0,11.0,35,0.00,,---,0.00,VWS V14.01,2013-05-26 18:50:00,
2013-05-26 14:55:00,62.9,38.2,30.04,WSW,253,8.0,11.0,40,0.00,,---,0.00,VWS V14.01,2013-05-26 18:55:00,
2013-05-26 15:00:00,63.3,35.9,30.04,NE,48,5.0,14.0,36,0.00,,---,0.00,VWS V14.01,2013-05-26 19:00:00,
2013-05-26 15:05:00,63.4,36.0,30.04,WNW,287,3.0,15.0,36,0.00,,---,0.00,VWS V14.01,2013-05-26 19:05:00,
2013-05-26 15:10:00,63.5,36.1,30.04,NE,45,4.0,15.0,36,0.00,,---,0.00,VWS V14.01,2013-05-26 19:10:00,
2013-05-26 15:15:00,63.7,34.8,30.04,NNW,347,12.0,15.0,34,0.00,,---,0.00,VWS V14.01,2013-05-26 19:15:00,
2013-05-26 15:20:00,63.6,36.2,30.04,NW,326,9.0,15.0,36,0.00,,---,0.00,VWS V14.01,2013-05-26 19:20:00,
2013-05-26 15:25:00,63.5,36.1,30.04,North,9,3.0,15.0,36,0.00,,---,0.00,VWS V14.01,2013-05-26 19:25:00,
2013-05-26 15:30:00,63.5,37.5,30.04,NE,44,3.0,15.0,38,0.00,,---,0.00,VWS V14.01,2013-05-26 19:30:00,
2013-05-26 15:35:00,63.3,35.9,30.04,NW,314,5.0,8.0,36,0.00,,---,0.00,VWS V14.01,2013-05-26 19:35:00,
2013-05-26 15:40:00,63.1,37.8,30.04,East,80,2.0,8.0,39,0.00,,---,0.00,VWS V14.01,2013-05-26 19:40:00,
2013-05-26 15:45:00,63.1,35.7,30.05,East,80,2.0,8.0,36,0.00,,---,0.00,VWS V14.01,2013-05-26 19:45:00,
2013-05-26 15:50:00,63.7,34.8,30.05,NNW,342,5.0,11.0,34,0.00,,---,0.00,VWS V14.01,2013-05-26 19:50:00,
2013-05-26 15:55:00,63.9,36.5,30.05,NNW,333,2.0,11.0,36,0.00,,---,0.00,VWS V14.01,2013-05-26 19:55:00,
2013-05-26 16:00:00,64.2,36.7,30.05,NNW,330,3.0,15.0,36,0.00,,---,0.00,VWS V14.01,2013-05-26 20:00:00,
2013-05-26 16:05:00,64.5,35.5,30.05,North,4,10.0,10.0,34,0.00,,---,0.00,VWS V14.01,2013-05-26 20:05:00,
2013-05-26 16:10:00,64.2,36.0,30.05,NW,310,3.0,10.0,35,0.00,,---,0.00,VWS V14.01,2013-05-26 20:10:00,
2013-05-26 16:15:00,64.1,36.6,30.05,WNW,300,5.0,10.0,36,0.00,,---,0.00,VWS V14.01,2013-05-26 20:15:00,
2013-05-26 16:20:00,64.5,37.7,30.05,NNE,26,1.0,10.0,37,0.00,,---,0.00,VWS V14.01,2013-05-26 20:20:00,
2013-05-26 16:25:00,64.2,36.7,30.05,West,277,6.0,10.0,36,0.00,,---,0.00,VWS V14.01,2013-05-26 20:25:00,
2013-05-26 16:30:00,63.9,35.7,30.05,NNE,22,4.0,11.0,35,0.00,,---,0.00,VWS V14.01,2013-05-26 20:30:00,
2013-05-26 16:35:00,63.9,36.5,30.05,West,266,3.0,10.0,36,0.00,,---,0.00,VWS V14.01,2013-05-26 20:35:00,
2013-05-26 16:40:00,64.1,35.9,30.05,NNE,14,6.0,13.0,35,0.00,,---,0.00,VWS V14.01,2013-05-26 20:40:00,
2013-05-26 16:45:00,64.1,35.9,30.06,WNW,285,4.0,13.0,35,0.00,,---,0.00,VWS V14.01,2013-05-26 20:45:00,
2013-05-26 16:50:00,63.9,35.7,30.06,NNE,23,5.0,13.0,35,0.00,,---,0.00,VWS V14.01,2013-05-26 20:50:00,
2013-05-26 16:55:00,63.9,37.1,30.06,NNW,344,4.0,13.0,37,0.00,,---,0.00,VWS V14.01,2013-05-26 20:55:00,
2013-05-26 17:00:00,64.1,37.3,30.06,NW,309,7.0,14.0,37,0.00,,---,0.00,VWS V14.01,2013-05-26 21:00:00,
2013-05-26 17:05:00,63.9,36.5,30.06,NE,37,3.0,12.0,36,0.00,,---,0.00,VWS V14.01,2013-05-26 21:05:00,
2013-05-26 17:10:00,63.8,37.0,30.06,NW,321,5.0,12.0,37,0.00,,---,0.00,VWS V14.01,2013-05-26 21:10:00,
2013-05-26 17:15:00,63.8,36.4,30.07,North,350,3.0,14.0,36,0.00,,---,0.00,VWS V14.01,2013-05-26 21:15:00,
2013-05-26 17:20:00,63.7,37.0,30.06,West,278,3.0,14.0,37,0.00,,---,0.00,VWS V14.01,2013-05-26 21:20:00,
2013-05-26 17:25:00,63.8,37.7,30.06,NNE,23,1.0,14.0,38,0.00,,---,0.00,VWS V14.01,2013-05-26 21:25:00,
2013-05-26 17:30:00,63.7,37.0,30.06,NE,37,2.0,14.0,37,0.00,,---,0.00,VWS V14.01,2013-05-26 21:30:00,
2013-05-26 17:35:00,63.6,36.9,30.07,NNW,335,3.0,8.0,37,0.00,,---,0.00,VWS V14.01,2013-05-26 21:35:00,
2013-05-26 17:40:00,63.5,37.5,30.07,NE,38,2.0,8.0,38,0.00,,---,0.00,VWS V14.01,2013-05-26 21:40:00,
2013-05-26 17:45:00,63.3,37.3,30.07,West,267,3.0,8.0,38,0.00,,---,0.00,VWS V14.01,2013-05-26 21:45:00,
2013-05-26 17:50:00,63.5,38.1,30.07,NNW,331,2.0,11.0,39,0.00,,---,0.00,VWS V14.01,2013-05-26 21:50:00,
2013-05-26 17:55:00,63.3,37.3,30.07,WNW,290,2.0,13.0,38,0.00,,---,0.00,VWS V14.01,2013-05-26 21:55:00,
2013-05-26 18:00:00,63.1,35.7,30.08,NE,39,3.0,13.0,36,0.00,,---,0.00,VWS V14.01,2013-05-26 22:00:00,
2013-05-26 18:05:00,63.3,35.9,30.07,West,271,2.0,7.0,36,0.00,,---,0.00,VWS V14.01,2013-05-26 22:05:00,
2013-05-26 18:10:00,63.3,36.6,30.08,NNE,18,3.0,7.0,37,0.00,,---,0.00,VWS V14.01,2013-05-26 22:10:00,
2013-05-26 18:15:00,63.3,35.9,30.08,WNW,295,3.0,10.0,36,0.00,,---,0.00,VWS V14.01,2013-05-26 22:15:00,
2013-05-26 18:20:00,63.5,38.1,30.08,West,276,3.0,10.0,39,0.00,,---,0.00,VWS V14.01,2013-05-26 22:20:00,
2013-05-26 18:25:00,63.4,36.0,30.09,WNW,298,5.0,10.0,36,0.00,,---,0.00,VWS V14.01,2013-05-26 22:25:00,
2013-05-26 18:30:00,63.4,34.6,30.09,NNE,25,4.0,10.0,34,0.00,,---,0.00,VWS V14.01,2013-05-26 22:30:00,
2013-05-26 18:35:00,63.3,33.7,30.09,North,349,7.0,9.0,33,0.00,,---,0.00,VWS V14.01,2013-05-26 22:35:00,
2013-05-26 18:40:00,63.2,35.1,30.09,NNW,332,2.0,9.0,35,0.00,,---,0.00,VWS V14.01,2013-05-26 22:40:00,
2013-05-26 18:45:00,63.1,35.0,30.10,North,8,1.0,9.0,35,0.00,,---,0.00,VWS V14.01,2013-05-26 22:45:00,
2013-05-26 18:50:00,63.0,37.0,30.10,NE,40,1.0,9.0,38,0.00,,---,0.00,VWS V14.01,2013-05-26 22:50:00,
2013-05-26 18:55:00,62.7,36.1,30.10,NNE,23,1.0,9.0,37,0.00,,---,0.00,VWS V14.01,2013-05-26 22:55:00,
2013-05-26 19:00:00,62.7,34.7,30.10,NNE,30,1.0,9.0,35,0.00,,---,0.00,VWS V14.01,2013-05-26 23:00:00,
2013-05-26 19:05:00,62.8,36.2,30.11,NNW,330,1.0,4.0,37,0.00,,---,0.00,VWS V14.01,2013-05-26 23:05:00,
2013-05-26 19:10:00,62.7,34.7,30.11,North,358,2.0,5.0,35,0.00,,---,0.00,VWS V14.01,2013-05-26 23:10:00,
2013-05-26 19:15:00,62.7,35.4,30.11,NNE,23,3.0,5.0,36,0.00,,---,0.00,VWS V14.01,2013-05-26 23:15:00,
2013-05-26 19:20:00,62.6,33.9,30.11,North,3,4.0,10.0,34,0.00,,---,0.00,VWS V14.01,2013-05-26 23:20:00,
2013-05-26 19:25:00,62.4,35.1,30.11,NW,309,0.0,10.0,36,0.00,,---,0.00,VWS V14.01,2013-05-26 23:25:00,
2013-05-26 19:30:00,62.6,36.7,30.11,NNE,16,1.0,10.0,38,0.00,,---,0.00,VWS V14.01,2013-05-26 23:30:00,
2013-05-26 19:35:00,62.5,35.2,30.12,NNW,330,0.0,4.0,36,0.00,,---,0.00,VWS V14.01,2013-05-26 23:35:00,
2013-05-26 19:40:00,62.0,35.5,30.12,North,6,3.0,4.0,37,0.00,,---,0.00,VWS V14.01,2013-05-26 23:40:00,
2013-05-26 19:45:00,61.5,34.3,30.12,NNW,338,3.0,5.0,36,0.00,,---,0.00,VWS V14.01,2013-05-26 23:45:00,
2013-05-26 19:50:00,61.1,36.0,30.12,NNE,20,1.0,5.0,39,0.00,,---,0.00,VWS V14.01,2013-05-26 23:50:00,
2013-05-26 19:55:00,60.8,36.3,30.12,NW,325,1.0,5.0,40,0.00,,---,0.00,VWS V14.01,2013-05-26 23:55:00,
2013-05-26 20:00:00,60.4,34.7,30.12,NNW,347,0.0,5.0,38,0.00,,---,0.00,VWS V14.01,2013-05-27 00:00:00,
2013-05-26 20:05:00,60.2,35.2,30.13,NW,325,1.0,6.0,39,0.00,,---,0.00,VWS V14.01,2013-05-27 00:05:00,
2013-05-26 20:10:00,60.0,35.0,30.13,NNW,331,0.0,6.0,39,0.00,,---,0.00,VWS V14.01,2013-05-27 00:10:00,
2013-05-26 20:15:00,59.7,35.4,30.13,NW,309,1.0,6.0,40,0.00,,---,0.00,VWS V14.01,2013-05-27 00:15:00,
2013-05-26 20:20:00,59.4,35.7,30.13,NNW,338,0.0,6.0,41,0.00,,---,0.00,VWS V14.01,2013-05-27 00:20:00,
2013-05-26 20:25:00,59.1,36.0,30.13,NW,317,1.0,6.0,42,0.00,,---,0.00,VWS V14.01,2013-05-27 00:25:00,
2013-05-26 20:30:00,58.9,34.6,30.13,NNW,335,2.0,6.0,40,0.00,,---,0.00,VWS V14.01,2013-05-27 00:30:00,
2013-05-26 20:35:00,58.8,37.0,30.14,NW,321,0.0,2.0,44,0.00,,---,0.00,VWS V14.01,2013-05-27 00:35:00,
2013-05-26 20:40:00,58.4,37.2,30.14,NW,320,0.0,2.0,45,0.00,,---,0.00,VWS V14.01,2013-05-27 00:40:00,
2013-05-26 20:45:00,57.7,40.7,30.15,NW,320,0.0,2.0,53,0.00,,---,0.00,VWS V14.01,2013-05-27 00:45:00,
2013-05-26 20:50:00,56.5,39.6,30.15,West,274,0.0,2.0,53,0.00,,---,0.00,VWS V14.01,2013-05-27 00:50:00,
2013-05-26 20:55:00,55.6,39.2,30.15,West,274,0.0,2.0,54,0.00,,---,0.00,VWS V14.01,2013-05-27 00:55:00,
2013-05-26 21:00:00,54.8,39.4,30.15,West,274,0.0,2.0,56,0.00,,---,0.00,VWS V14.01,2013-05-27 01:00:00,
2013-05-26 21:05:00,54.2,38.9,30.16,West,274,0.0,0.0,56,0.00,,---,0.00,VWS V14.01,2013-05-27 01:05:00,
2013-05-26 21:10:00,53.6,38.8,30.16,West,274,0.0,0.0,57,0.00,,---,0.00,VWS V14.01,2013-05-27 01:10:00,
2013-05-26 21:15:00,52.9,39.4,30.16,West,274,0.0,0.0,60,0.00,,---,0.00,VWS V14.01,2013-05-27 01:15:00,
2013-05-26 21:20:00,52.3,39.7,30.17,West,274,0.0,0.0,62,0.00,,---,0.00,VWS V14.01,2013-05-27 01:20:00,
2013-05-26 21:25:00,51.8,40.0,30.17,West,274,0.0,0.0,64,0.00,,---,0.00,VWS V14.01,2013-05-27 01:25:00,
2013-05-26 21:30:00,51.3,39.5,30.17,West,274,0.0,0.0,64,0.00,,---,0.00,VWS V14.01,2013-05-27 01:30:00,
2013-05-26 21:35:00,50.8,39.5,30.18,West,274,0.0,0.0,65,0.00,,---,0.00,VWS V14.01,2013-05-27 01:35:00,
2013-05-26 21:40:00,50.4,40.2,30.18,West,274,0.0,0.0,68,0.00,,---,0.00,VWS V14.01,2013-05-27 01:40:00,
2013-05-26 21:45:00,50.0,40.2,30.18,West,274,0.0,0.0,69,0.00,,---,0.00,VWS V14.01,2013-05-27 01:45:00,
2013-05-26 21:50:00,49.5,39.8,30.18,West,274,0.0,0.0,69,0.00,,---,0.00,VWS V14.01,2013-05-27 01:50:00,
2013-05-26 21:55:00,49.1,40.1,30.19,West,274,0.0,0.0,71,0.00,,---,0.00,VWS V14.01,2013-05-27 01:55:00,
2013-05-26 22:00:00,48.8,40.9,30.19,West,274,0.0,0.0,74,0.00,,---,0.00,VWS V14.01,2013-05-27 02:00:00,
2013-05-26 22:05:00,48.5,41.0,30.19,West,274,0.0,0.0,75,0.00,,---,0.00,VWS V14.01,2013-05-27 02:05:00,
2013-05-26 22:10:00,48.2,41.3,30.19,West,274,0.0,0.0,77,0.00,,---,0.00,VWS V14.01,2013-05-27 02:10:00,
2013-05-26 22:15:00,47.9,41.4,30.19,West,274,0.0,0.0,78,0.00,,---,0.00,VWS V14.01,2013-05-27 02:15:00,
2013-05-26 22:20:00,47.6,41.8,30.20,West,274,0.0,0.0,80,0.00,,---,0.00,VWS V14.01,2013-05-27 02:20:00,
2013-05-26 22:25:00,47.3,41.8,30.20,West,274,0.0,0.0,81,0.00,,---,0.00,VWS V14.01,2013-05-27 02:25:00,
2013-05-26 22:30:00,47.1,41.6,30.20,West,274,0.0,0.0,81,0.00,,---,0.00,VWS V14.01,2013-05-27 02:30:00,
2013-05-26 22:35:00,46.8,41.9,30.20,West,274,0.0,0.0,83,0.00,,---,0.00,VWS V14.01,2013-05-27 02:35:00,
2013-05-26 22:40:00,46.6,42.0,30.20,West,274,0.0,0.0,84,0.00,,---,0.00,VWS V14.01,2013-05-27 02:40:00,
2013-05-26 22:45:00,46.4,42.1,30.20,West,274,0.0,0.0,85,0.00,,---,0.00,VWS V14.01,2013-05-27 02:45:00,
2013-05-26 22:50:00,46.2,42.0,30.20,West,274,0.0,0.0,85,0.00,,---,0.00,VWS V14.01,2013-05-27 02:50:00,
2013-05-26 22:55:00,46.0,42.0,30.20,West,274,0.0,0.0,86,0.00,,---,0.00,VWS V14.01,2013-05-27 02:55:00,
2013-05-26 23:00:00,45.7,41.8,30.21,West,274,0.0,0.0,86,0.00,,---,0.00,VWS V14.01,2013-05-27 03:00:00,
2013-05-26 23:05:00,45.5,41.9,30.21,West,274,0.0,0.0,87,0.00,,---,0.00,VWS V14.01,2013-05-27 03:05:00,
2013-05-26 23:10:00,45.3,41.7,30.21,West,274,0.0,0.0,87,0.00,,---,0.00,VWS V14.01,2013-05-27 03:10:00,
2013-05-26 23:15:00,45.0,41.4,30.21,West,274,0.0,0.0,87,0.00,,---,0.00,VWS V14.01,2013-05-27 03:15:00,
2013-05-26 23:20:00,44.8,41.5,30.21,West,274,0.0,0.0,88,0.00,,---,0.00,VWS V14.01,2013-05-27 03:20:00,
2013-05-26 23:25:00,44.6,41.3,30.21,West,274,0.0,0.0,88,0.00,,---,0.00,VWS V14.01,2013-05-27 03:25:00,
2013-05-26 23:30:00,44.4,41.1,30.21,West,274,0.0,0.0,88,0.00,,---,0.00,VWS V14.01,2013-05-27 03:30:00,
2013-05-26 23:35:00,44.3,41.0,30.22,West,274,0.0,0.0,88,0.00,,---,0.00,VWS V14.01,2013-05-27 03:35:00,
2013-05-26 23:40:00,44.2,40.9,30.21,West,274,0.0,0.0,88,0.00,,---,0.00,VWS V14.01,2013-05-27 03:40:00,
2013-05-26 23:45:00,44.1,40.8,30.22,West,274,0.0,0.0,88,0.00,,---,0.00,VWS V14.01,2013-05-27 03:45:00,
2013-05-26 23:50:00,43.9,40.6,30.21,West,274,0.0,0.0,88,0.00,,---,0.00,VWS V14.01,2013-05-27 03:50:00,
2013-05-26 23:55:00,43.7,40.7,30.22,West,274,0.0,0.0,89,0.00,,---,0.00,VWS V14.01,2013-05-27 03:55:00,